Weather Roundup
Issued by NWS

Home | Current Version | Previous Version | Graphics & Text | Print | Product List | Glossary Off
Versions: 1 2 3 4 5 6 7 8 9 10 11 12 13 14 15 16 17 18 19 20 21 22 23 24 25 26 27 28 29 30 31 32 33 34 35 36 37 38 39 40 41 42 43 44 45 46 47 48 49 50

000
NZUS93 KARX 181459
HRRWXR

CURRENT HOURLY OBSERVATIONS ACROSS
MUCH OF THE UPPER MISSISSIPPI VALLEY
NATIONAL WEATHER SERVICE LA CROSSE WI
1000 AM CDT THU SEP 18 2014


...SOUTHEAST MINNESOTA...


CITY           SKY/WX    TMP DP  RH WIND       PRES   REMARKS
ROCHESTER      SUNNY     60  54  80 SE7       30.13R
ROCHESTER/MAYO FAIR      58  51  77 SE10      30.12R
WINONA         CLOUDY    54  54 100 SE6       30.15R FOG
AUSTIN         SUNNY     63  55  77 S5        30.11R
ALBERT LEA     SUNNY     63  57  82 S7        30.10R
DODGE CENTER   SUNNY     61  55  82 S6        30.11R
PRESTON        SUNNY     57  56  95 SE5       30.14R
OWATONNA       SUNNY     63  55  77 SE3       30.09S
FARIBAULT      SUNNY     63  54  72 CALM      30.10R
$$

...ELSEWHERE IN MINNESOTA...


CITY           SKY/WX    TMP DP  RH WIND       PRES   REMARKS
MINNEAPOLIS    PTSUNNY   53  49  86 SE8       30.10S
INTNL FALLS    CLOUDY    43  42  97 SE8       30.10F
DULUTH         PTSUNNY   45  38  76 E18       30.15R
RED WING       CLOUDY    54  52  94 SE8       30.11S
REDWOOD FALLS  PTSUNNY   57  53  86 E6        30.06S
MANKATO        SUNNY     61  52  72 SE6       30.08R
WORTHINGTON    SUNNY     64  55  72 S10       30.06S
FAIRMONT       PTSUNNY   61  54  77 S9        30.08R
$$

...SOUTHWEST WISCONSIN...


CITY           SKY/WX    TMP DP  RH WIND       PRES   REMARKS
LA CROSSE      CLOUDY    53  50  89 SE8       30.16R
PRAIRIE DU CHI MOSUNNY   53  52  96 E5        30.15R
BOSCOBEL       CLOUDY    54  51  90 E3        30.18R
LONE ROCK      NOT AVBL
PLATTEVILLE    SUNNY     55  51  88 CALM      30.17R
FORT MC COY    CLOUDY    50  49  96 E5        30.17R FOG
VIROQUA        CLOUDY    50  50 100 SE7       30.16R VSB<1/4
WIS DELLS      CLOUDY    48  47  93 E6        30.18R FOG
$$

...ELSEWHERE IN WISCONSIN...


CITY           SKY/WX    TMP DP  RH WIND       PRES   REMARKS
MILWAUKEE      CLOUDY    54  49  83 N10       30.18R
MADISON        CLOUDY    50  49  96 E8        30.19R FOG
GREEN BAY      CLOUDY    48  41  76 N7        30.22R
EAU CLAIRE     NOT AVBL
BLACK RVR FLS  CLOUDY    50  50 100 E5        30.16R FOG
MEDFORD        CLOUDY    44  43  97 SE7       30.17R FOG
WAUSAU         CLOUDY    43  39  86 SE10      30.19R
WIS RAPIDS     CLOUDY    46  43  89 SE7       30.21R
MARSHFIELD     CLOUDY    45  43  93 SE12      30.19R FOG
RICE LAKE      CLOUDY    50  47  90 E8        30.16R
$$

...NORTHEAST IOWA...


CITY           SKY/WX    TMP DP  RH WIND       PRES   REMARKS
WATERLOO       SUNNY     62  55  77 SE5       30.12R
DUBUQUE        SUNNY     56  53  90 NE6       30.15R
DECORAH        SUNNY     59  54  82 VRB3      30.13R
MASON CITY     SUNNY     62  57  83 S8        30.12R
CHARLES CITY   SUNNY     63  55  77 VRB5      30.13R
OELWEIN        SUNNY     63  55  77 SE6       30.14R
$$

...ELSEWHERE IN IOWA...


CITY           SKY/WX    TMP DP  RH WIND       PRES   REMARKS
DES MOINES     FOG       59  58  96 E7        30.09S VSB 1/4
IOWA CITY      SUNNY     62  56  80 VRB5      30.13S
FORT DODGE     SUNNY     63  57  82 SE6       30.10R
MARSHALLTOWN   SUNNY     62  57  83 SE6       30.10S
CEDAR RAPIDS   SUNNY     62  57  83 E7        30.12R
$$

...NORTHERN ILLINOIS...


CITY           SKY/WX    TMP DP  RH WIND       PRES   REMARKS
CHICAGO-OHARE  MOSUNNY   62  55  77 NE9       30.15S
DUPAGE         CLOUDY    60  55  83 NE3       30.15S
CHICAGO-MIDWAY PTSUNNY   65  56  72 CALM      30.15S
MOLINE         SUNNY     64  52  64 E5        30.13R
ROCKFORD       CLOUDY    54  51  90 E8        30.20R FOG
STERLING       SUNNY     63  52  67 E9        30.15R
PEORIA         SUNNY     66  54  65 NE7       30.12R
$$

NOTE: "FAIR" INDICATES FEW OR NO CLOUDS BELOW 12,000 FEET WITH NO
SIGNIFICANT WEATHER AND/OR OBSTRUCTIONS TO VISIBILITY. WIND
SPEEDS ARE IN MILES-PER-HOUR.



USA.gov is the U.S. government's official web portal to all federal, state and local government web resources and services.